Regional Weather Roundup
Issued by NWS

Home | Current Version | Previous Version | Text Only | Print | Product List | Glossary On
Versions: 1 2 3 4 5 6 7 8 9 10 11 12 13 14 15 16 17 18 19 20 21 22 23 24 25 26 27 28 29 30 31 32 33 34 35 36 37 38 39 40 41 42 43 44 45 46 47 48 49 50
000
ASUS44 KFWD 161515
RWRTX
NORTH TEXAS HOURLY WEATHER ROUNDUP
NATIONAL WEATHER SERVICE FORT WORTH TX
900 AM CST MON JAN 16 2017

NOTE: "FAIR" INDICATES FEW OR NO CLOUDS BELOW 12,000 FEET WITH NO
SIGNIFICANT WEATHER AND/OR OBSTRUCTIONS TO VISIBILITY.

TXZ118-119-161600-
DALLAS/FORT WORTH METROPLEX

CITY           SKY/WX    TMP DP  RH WIND       PRES   REMARKS
DFW AIRPORT    FOG       48  48 100 NW8       29.98R VSB 1/4
DALLAS LOVE    FOG       50  49  96 NW7       29.98R VSB 3/4
FTW MEACHAM    FOG       47  45  93 CALM      29.99R VSB 1/4
DAL-EXECUTIVE  FOG       49  49 100 NW6       29.97R VSB 1/4
FTW-ALLIANCE   FOG       46  45  96 NW3       29.99R VSB 1
FTW-NAS-JRB    CLOUDY    47  47 100 NW5       30.00R FOG
FTW-SPINKS     FOG       46  45  93 CALM      30.00R VSB 1/2
ARLINGTON      FOG       47  46  97 W5        29.99R VSB 1/4
GRAND PRAIRIE  FOG       46  46 100 CALM      30.00R VSB 1/2
ADDISON        CLOUDY   N/A N/A N/A CALM      30.00R FOG
MESQUITE       PTSUNNY   54  52  94 CALM      29.99R FOG
LANCASTER      PTSUNNY   50  50  99 CALM      29.99R
$$

TXZ091>094-102>105-117-120-121-131>134-161600-
NORTH CENTRAL TEXAS

CITY           SKY/WX    TMP DP  RH WIND       PRES   REMARKS
SHRMAN/DENISON CLOUDY   N/A N/A N/A W7        30.00R
GAINESVILLE    CLOUDY    45  44  97 SW6       30.00S
BOWIE          CLOUDY    44  44 100 W5        29.99R
BRIDGEPORT     CLOUDY    44  44 100 W7        30.00R WCI  39
DECATUR        FOG      N/A N/A N/A SW8       29.98R VSB 1/4
DENTON         CLOUDY    46  46 100 W6        30.00R
MCKINNEY       CLOUDY    50  50 100 W7        29.98R FOG
BONHAM         FOG       52  52 100 SW10      29.98R VSB 1/2
GREENVILLE     PTSUNNY   55  55 100 W5        29.98R
ROCKWALL       FOG       53  53 100 W6        29.98R VSB<1/4
TERRELL        FOG       55  54  96 W7        29.99R VSB 3/4
WAXAHACHIE     SUNNY     50  50 100 W5        29.99R
CLEBURNE       SUNNY     46  46 100 CALM      30.00R
GRANBURY       FOG       43  42  95 CALM      30.01R VSB 1/2
$$

TXZ083>090-098>101-113>116-127>130-139>142-154-155-161600-
WESTERN NORTH TEXAS

CITY           SKY/WX    TMP DP  RH WIND       PRES   REMARKS
WICHITA FALLS  CLOUDY    42  39  89 SW12      29.98R WCI  36
WF-KICKAPOO    PTSUNNY   42  40  93 SW5       30.00R WCI  39
VERNON         MOSUNNY   37  34  87 SW8       29.98R WCI  31
ABILENE        SUNNY     41  41 100 S5        29.99R WCI  38
ABILENE-DYESS  SUNNY     40  40 100 SW3       29.98R
GRAHAM         MOSUNNY   43  43 100 W6        29.98R WCI  39
BRECKENRIDGE   CLOUDY    42  42 100 CALM      30.00R FOG
CISCO          SUNNY     46  43  87 W8        29.98R
MINERAL WELLS  FOG       41  41 100 W3        29.98R VSB 1/4
STEPHENVILLE   SUNNY     46  44  95 CALM      30.01R
COMANCHE       SUNNY     49  44  81 W8        29.99S
BROWNWOOD      SUNNY     45  45 100 CALM      30.01R
$$

TXZ143>147-156>162-174-175-161600-
CENTRAL TEXAS

CITY           SKY/WX    TMP DP  RH WIND       PRES   REMARKS
WACO           CLOUDY    54  54 100 W3        29.99R VSB 3/4
WACO-TSTC      MOSUNNY   55  55 100 NW6       29.99R
WACO-MCGREGOR  SUNNY     56  53  90 CALM      30.00R
HILLSBORO      FOG       52  52  99 CALM      29.99R VSB 3/4
CORSICANA      CLOUDY    61  60  97 W7        29.99R
MEXIA          CLOUDY    62  61  97 W3        29.97R
HEARNE         CLOUDY    65  65 100 SE3       29.98S
CAMERON        LGT RAIN  63  62  96 CALM      29.98R
TEMPLE         SUNNY     57  56  96 W5        30.00R
KILLEEN        SUNNY     57  48  71 NW7       29.98R
GATESVILLE     SUNNY     52  52 100 CALM      30.02R
HAMILTON       SUNNY     50  50 100 W7        30.00R
LAMPASAS       SUNNY     55  53  91 W3        29.98S
$$

TXZ095>097-106>112-122>126-135>138-148>153-164>167-161600-
EAST TEXAS

CITY           SKY/WX    TMP DP  RH WIND       PRES   REMARKS
PARIS          CLOUDY    59  55  88 SW7       29.97R
SULPHUR SPRNGS CLOUDY    59  58  97 W5        29.99R
MOUNT PLEASANT CLOUDY    64  64 100 S7        29.99R
GILMER         RAIN      64  63  97 SE6       29.97S
MINEOLA        CLOUDY    61  59  94 CALM      29.97R
TYLER          LGT RAIN  65  64  97 S8        29.96S
LONGVIEW       CLOUDY    67  66  97 S8        29.97R
MARSHALL       CLOUDY    65  63  92 S13       30.01S
ATHENS         CLOUDY    63  63 100 CALM      29.96R
PALESTINE      LGT RAIN  65  65 100 SE3       29.98S
JACKSONVILLE   CLOUDY    65  65 100 S14G24    29.99R
HENDERSON      LGT RAIN  64  64 100 S10G17    29.99R
CENTER         CLOUDY    67  66  95 SE7       30.02S
NACOGDOCHES    CLOUDY    66  64  94 S8        29.99R VSB 1/2
LUFKIN         LGT RAIN  66  65  96 SE9       30.00R
$$

SUPPLEMENTAL OBSERVATIONS (CENTRAL)

CITY           SKY/WX    TMP DP  RH WIND       PRES   REMARKS
DENISON DAM      N/A     48  45  87 W8          N/A
CADDO GRASSLND   N/A     55  52  88 SW6         N/A
PAT MAYSE LAKE   N/A     57  55  94 S8          N/A
GREENVILLE       N/A     59  55  88 SW9         N/A
MCGREGOR         N/A     55  54  94 W1          N/A
TEMPLE           N/A     63  55  77 W3          N/A
$$

SUPPLEMENTAL OBSERVATIONS (WEST)

CITY           SKY/WX    TMP DP  RH WIND       PRES   REMARKS
MILLERS CREEK    N/A     43  41  93 W10         N/A  WCI  37
POSSUM KINGDOM   N/A     43  41  93 W3          N/A
LBJ GRASSLAND    N/A     43  41  93 SW5         N/A
GRANBURY         N/A     43  41  93 NW2         N/A
HAMBY            N/A     43  39  87 W3          N/A
IVIE RESERVOIR   N/A     45  39  81 NW5         N/A
COLORADO BEND    N/A     55  45  67 W3          N/A
$$

SUPPLEMENTAL OBSERVATIONS (EAST)

CITY           SKY/WX    TMP DP  RH WIND       PRES   REMARKS
CLARKSVILLE      N/A     57  55  94 SW2         N/A
TEXARKANA        N/A     64  63  94 SE5G13      N/A
CADDO LAKE       N/A     64  63  94 S3          N/A
GILMER           N/A     64  63  94 S6          N/A
HENDERSON        N/A     66  63  88 S9G17       N/A
LUFKIN           N/A     66  63  88 MISG        N/A
N SABINE NF      N/A     64  63  94 MISG        N/A
S SABINE NF      N/A     66  64  94 SE3         N/A
$$

SUPPLEMENTAL OBSERVATIONS ARE A COLLECTION OF AUTOMATED INSTRUMENTS
THAT ARE MAINTAINED BY A VARIETY OF FEDERAL AND STATE AGENCIES.
CERTAIN ELEMENTS...SUCH AS HUMIDITY VALUES AND SUSTAINED WIND
SPEEDS...MAY BE APPROXIMATED.





USA.gov is the U.S. government's official web portal to all federal, state and local government web resources and services.